Powrót do katalogu

BREEZE-M DEB

LostHEO
NORAD 34238·DEBRIS·🇷🇺 Russia

Wystrzelony Feb 28, 2006 z Baikonur Cosmodrome

Loading…

Następne Przeloty (najbliższe 24 godziny)

TLE

NieaktualneSource: Space-Track

Epoka: Oct 11, 2023, 10:41 UTC

1 34238U 06006BD  23284.44566981  .00003034  00000-0  54273-2 0  9997
2 34238  51.5711 211.7858 5037313 185.8232 164.9595  5.31153474 48852

Śledź BREEZE-M DEB w czasie rzeczywistym z AllMySat

Download on the App Store